Regional Weather Roundup
Issued by NWS

Home | Current Version | Previous Version | Graphics & Text | Print | Product List | Glossary On
Versions: 1 2 3 4 5 6 7 8 9 10 11 12 13 14 15 16 17 18 19 20 21 22 23 24 25 26 27 28 29 30 31 32 33 34 35 36 37 38 39 40 41 42 43 44 45 46 47 48 49 50
000
ASUS43 KDMX 010903
RWRIA

WEATHER ROUNDUP FOR IOWA
NATIONAL WEATHER SERVICE DES MOINES IA
400 AM CDT SUN MAY 01 2016

NOTE: "FAIR" INDICATES FEW OR NO CLOUDS BELOW 12,000 FEET WITH NO
SIGNIFICANT WEATHER AND/OR OBSTRUCTIONS TO VISIBILITY.

* - THESE STATIONS ARE NOT NWS STATIONS...THUS NOT UNDER NWS
QUALITY CONTROL.  THEY ALSO DO NOT REPORT WEATHER SUCH
AS PRECIPITATION OR FOG.

IAZ001>003-012>014-020>022-031>034-043>046-011000-
   NORTHWEST IOWA

CITY           SKY/WX    TMP DP  RH WIND       PRES   REMARKS
CARROLL *      CLOUDY    43  43 100 E12G18    29.97R FOG
CHEROKEE *     DRIZZLE   43  43 100 NE13G18   30.02S
DENISON *      LGT RAIN  43  43 100 NE16      29.95R
LE MARS *      CLOUDY    43  41  93 NE15G21   30.04S
ORANGE CITY *  CLOUDY    43  41  93 NE10G18   30.04R
SHELDON *      CLOUDY    43  41  93 NE18      30.04R FOG
SIOUX CITY     LGT RAIN  44  41  89 NE15G22   30.02R
SPENCER        CLOUDY    42  40  92 NE20      30.04S FOG
STORM LAKE *   CLOUDY    41  41 100 NE18G28   30.01R FOG
$$

IAZ055>058-069>071-079>083-090>094-011000-
   SOUTHWEST IOWA

CITY           SKY/WX    TMP DP  RH WIND       PRES   REMARKS
ATLANTIC *     CLOUDY    45  43  93 NE9       29.94R
AUDUBON *        N/A     43  41  93 NE13      29.96R
CLARINDA *       N/A    N/A N/A N/A MISG        N/A
COUNCIL BLFS * CLOUDY    45  45 100 NE14      29.92S
CRESTON *      CLOUDY    45  45 100 NE13      29.92S
HARLAN  *      CLOUDY    45  43  93 NE12      29.98R
LAMONI         FOG       46  46 100 NE12      29.89S VSB 3/4
RED OAK *      CLOUDY    46  46 100 NE13G18   29.91S
SHENANDOAH *   CLOUDY    48  48 100 NE13      29.91R
$$

IAZ047>049-059>061-072>074-084-011000-
   CENTRAL IOWA

CITY           SKY/WX    TMP DP  RH WIND       PRES   REMARKS
AMES           CLOUDY    44  42  93 NE12      29.96S
ANKENY *       CLOUDY    45  45 100 NE12G17   29.94S
BOONE *        CLOUDY    43  43 100 NE15G21   29.95F
CHARITON *     CLOUDY    45  45 100 NE10G18   29.91F FOG
DES MOINES     CLOUDY    46  42  86 E9        29.95R
GRINNELL*      CLOUDY    43  43 100 NE10      29.95S FOG
KNOXVILLE *    CLOUDY    45  43  93 E9        29.92S
MARSHALLTOWN   LGT RAIN  44  43  96 NE12      29.96R FOG
NEWTON *       CLOUDY    45  45 100 NE13      29.93F
PELLA *        CLOUDY    44  44  98 NE7       29.94S
$$

IAZ004>006-015-016-023>025-035-036-011000-
   NORTH CENTRAL IOWA

CITY           SKY/WX    TMP DP  RH WIND       PRES   REMARKS
ALGONA *       LGT RAIN  43  41  93 NE16      30.03S
CLARION *      CLOUDY    43  43 100 NE17      30.00R FOG
ESTHERVILLE    CLOUDY    42  41  96 NE21G29   30.05R FOG
FORT DODGE *   CLOUDY    43  37  81 NE10      30.01R
MASON CITY     CLOUDY    42  40  92 NE15      30.04R
FOREST CITY *  LGT RAIN  41  41 100 NE12      30.03S
WEBSTER CITY * CLOUDY    43  43 100 NE10      29.97R FOG
IOWA FALLS *   CLOUDY    45  43  93 NE10G18   29.99R
$$

IAZ007>011-017>019-026>030-037>042-050>054-066-011000-
   NORTHEAST IOWA

CITY           SKY/WX    TMP DP  RH WIND       PRES   REMARKS
CEDAR RAPIDS   CLOUDY    44  44 100 NE9       29.93F FOG
CHARLES CITY * CLOUDY    43  43 100 NE15G23   30.01R
CLINTON *      CLOUDY    46  45  96 NE13      29.94R
DECORAH *      CLOUDY    43  41  93 NE10      30.01S
DUBUQUE        CLOUDY    43  42  97 NE13      29.96S FOG
MONTICELLO *   CLOUDY    45  45 100 NE8G14    29.95S FOG
OELWEIN *      CLOUDY    43  43 100 NE15      29.98R
WATERLOO       CLOUDY    43  41  93 NE14      29.98R
$$

IAZ064-065-067-068-078-011000-
   EAST CENTRAL IOWA

CITY           SKY/WX    TMP DP  RH WIND       PRES   REMARKS
DAVENPORT      CLOUDY    45  44  97 NE10      29.93S FOG
IOWA CITY      CLOUDY    45  44  97 NE7       29.95S FOG
MT. PLEASANT * CLOUDY    48  48 100 NE8       29.92S FOG
MUSCATINE *    CLOUDY    46  45  93 NE10      29.94R FOG
QUAD CITIES    CLOUDY    47  44  90 NE10      29.91S FOG
$$

IAZ062-063-075>077-085>089-095>099-011000-
   SOUTHEAST IOWA

CITY           SKY/WX    TMP DP  RH WIND       PRES   REMARKS
BURLINGTON     CLOUDY    47  47 100 NE8       29.91R FOG
FAIRFIELD *    CLOUDY    46  45  93 NE10      29.92S FOG
FORT MADISON * FOG       46  46 100 N7        29.91S VSB 3/4
KEOKUK *       FOG       48  48 100 NE5       29.90R VSB 3/4
OSKALOOSA *    CLOUDY    45  43  93 NE10      29.93S FOG
OTTUMWA        CLOUDY    45  43  93 NE9       29.92S
WASHINGTON *   CLOUDY    45  45 100 NE10      29.94R FOG
$$

ABBREVIATIONS USED IN REMARKS
   TC - TEMPERATURES IN CELSIUS
  WCI - WIND CHILL INDEX
   HX - HEAT INDEX
  VSB - VISIBILITY
$$





USA.gov is the U.S. government's official web portal to all federal, state and local government web resources and services.